OBJECT B, 62726

Orbit data source: Space-Track

You're viewing an Uncataloged Satellite

Recently launched and/or uncataloged satellites may have evolving metadata. Metadata may include but not limited to: Owner, Maufacturer, Bus, Motor, and Mission.

OBJECT B, 62726 is a Chinese satellite in SSO that was launched on Fri, 17 Jan 2025 UTC via a CHANG ZHENG 2D launch vehicle from the Jiuquan Satellite Launch Center, China (JSC). Unknown objects in Earth's orbit typically refer to objects detected orbiting the Earth but have not yet been identified or cataloged. These objects could be anything from previously untracked satellites, spent rocket stages, debris from satellite collisions, or even natural meteoroids temporarily captured by Earth's gravity.

Loading next visibility...
OBJECT B details
Identifier
62726, 2025-012B
Orbit
SSO
Last TLE update9 hours ago
Origin
Flag of CNJHQJ/YINHE (CN / PRC)
ManufacturerYinhe
MissionOperational spacecraft
Bus & MotorTIANLU, Unknown motor
Mass~100 kg wet, ~100 kg dry
Launch date (UTC)
2025-01-17 (3 weeks ago)
Launch vehicle
CHANG ZHENG 2D
Launch site
Jiuquan Satellite Launch Center, China (JSC)
Object typeUnknown
Shape & HBRUnknown
Radar Cross SectionLarge (>1 m²)

Expand to show TLE details & history

TLE from 9 hours ago
0 OBJECT B
1 62726U 25012B   25035.78029565  .00008807  00000-0  47766-3 0  9996
2 62726  97.4770 111.4236 0009603 203.5263 156.5531 15.14762364  2788
Epoch: 2025-02-04T18:43Z
Definitive object data (Epoch: 2025-02-04T18:43:37.544Z)
Latitude-0.00001°
Longitude55.33649°
Altitude530.862 km
Speed7.594 km/s
True Right ascension07h 25m 41s
True Declination0° 00' 00"
Sunlit
Object was in full shadow at TLE epoch
Visualization TLE readout
Latitude-78.06109°
Longitude93.8315°
Altitude548.025 km
Speed7.588 km/s
Apparent Right ascension16h 48m 07s
Apparent Declination-67° 55' 12"
Sunlit
Object is in daylight
Visualization observer readout
Local Sidereal Time05:54:47
Azimuth167.332° S
Elevation-60.552°
Doppler factor1
Orbital elements
Apogee altitude525.299 km
Perigee altitude512.053 km
Semi-major axis6,896.813 km
Eccentricity0.0009603
Inclination97.477°
RAAN111.4236°
Arg. of periapsis203.5263°
True anomaly156.59684°
Mean anomaly156.5531°
Eccentric anomaly156.57497°
Mean motion3.7894 °/min
BSTAR0.00047766
Orbital period95 mins
Loading maneuver chart data...
Loading historical data...
Loading historical data...
Loading historical data...
Loading historical data...
Loading historical data...
Loading historical data...
Loading historical data...
Other satellites on launch #12 in the year 2025 (2025-01-17 UTC)

OBJECT B Visibility forecast

Observer location: undefined°, undefined

Span
Click to sort rows by Start time (UTC) header in descending order
Start Az.
Max El. time (UTC)
Max El. Az.
Max El.
End time (UTC)
End Az.
5 mins2025-02-05 04:23:02.309Z126.92° SE2025-02-05 04:25:02.309Z86.506° E27.047°2025-02-05 04:28:02.309Z15.583° NNE
6 mins2025-02-05 17:30:02.309Z29.646° NE2025-02-05 17:32:02.309Z74.911° E36.563°2025-02-05 17:36:02.309Z176.387° S
|